Wind_Speed
8 20 19 16 13 9 8 6 5 3 2 5 7 8 9 12 8 10 10 10 11 12 11 11 11 10 11 12 12 14 15 13 20 12 10 8 6 7 5 5 6 6 6
7 15 18 16 13 11 8 6 4 2 4 7 8 8 12 9 12 9 8 9 9 10 10 12 11 10 10 10 10 11 12 9 14 7 3 3 4 8 6 6 6 8 5
11 8 16 18 14 12 9 7 6 5 4 5 7 9 9 9 7 11 10 8 8 9 9 10 10 10 9 9 9 9 10 9 9 8 4 2 1 4 5 8 9 8 10
7 7 14 18 17 13 10 8 7 5 3 5 6 7 7 8 10 12 11 10 8 8 10 9 9 9 8 7 8 8 8 7 8 6 8 3 3 0 3 2 4 10 6
10 10 15 21 17 13 12 9 8 5 4 4 5 4 5 6 8 9 9 8 6 7 6 7 7 8 7 7 7 7 7 6 6 6 6 6 6 4 1 3 6 12 9
8 8 17 16 15 14 11 8 8 5 5 5 5 5 5 6 8 8 8 7 7 6 5 6 7 7 8 7 7 8 8 7 6 5 5 5 3 3 3 2 3 6 8
8 8 8 14 16 16 12 11 10 8 7 6 5 4 5 6 7 7 8 9 8 6 5 5 7 8 8 7 7 7 7 6 6 6 6 5 6 7 8 4 3 2 6
7 8 12 19 18 16 14 13 12 10 10 8 6 6 6 6 6 7 8 8 8 7 7 7 7 8 7 7 7 8 7 7 7 7 7 7 7 7 7 4 2 2 2
9 10 14 21 20 19 20 18 16 14 12 10 8 8 7 6 6 7 7 8 8 8 8 9 9 9 8 8 8 9 8 8 8 7 8 9 8 7 8 8 7 4 1
8 8 10 19 21 21 21 19 18 16 13 12 11 9 8 7 6 7 8 8 9 9 10 9 9 9 9 9 10 10 9 10 9 8 9 10 10 9 9 9 9 9 8
8 7 10 18 21 22 21 21 19 16 16 14 12 11 9 8 8 9 9 9 9 9 9 9 10 10 10 9 10 10 10 10 10 10 11 11 11 11 11 11 11 12 12
8 8 13 19 21 24 23 23 22 20 19 17 16 13 11 10 10 10 10 9 10 10 11 10 10 9 9 9 10 10 10 10 11 11 11 13 12 12 12 12 13 13 13
8 7 8 12 20 25 27 27 25 24 21 20 17 15 14 13 13 13 12 11 11 11 10 10 10 10 10 10 10 10 10 10 10 11 12 12 12 13 13 13 14 14 15
8 8 7 11 21 27 29 28 27 26 24 21 19 18 19 18 16 14 14 13 12 12 11 11 11 10 10 10 10 10 10 9 10 11 13 13 13 13 13 14 15 14 14
8 9 11 8 18 21 27 27 27 25 24 22 21 23 22 20 18 17 15 14 13 13 13 13 12 12 12 11 11 11 11 12 12 11 11 12 12 13 13 15 15 15 15
9 9 9 9 14 21 24 25 24 23 22 23 24 25 23 21 21 19 17 15 15 15 15 15 14 14 14 13 13 13 14 14 14 14 12 12 12 12 12 13 15 15 16
9 9 8 9 15 17 19 20 20 19 20 22 24 25 24 23 22 20 18 18 17 16 17 16 16 17 16 14 14 13 14 16 16 16 16 16 14 11 12 13 14 15 16
8 9 10 12 13 14 15 16 16 16 16 19 23 24 24 24 21 19 20 20 19 18 18 17 16 17 19 18 16 15 15 17 19 18 17 17 17 15 13 14 15 17 17
14 16 18 14 13 10 8 8 8 10 14 20 21 23 23 22 20 21 22 21 19 18 19 17 17 19 21 19 18 16 17 19 21 18 17 17 18 17 15 15 19 21 23
22 20 14 7 5 6 8 9 12 13 15 17 19 20 19 22 22 22 22 20 18 18 17 17 18 19 20 21 19 19 19 20 22 22 21 20 20 19 18 18 19 22 27
22 27 22 18 19 15 11 9 10 14 16 18 18 16 14 14 15 17 16 16 16 16 17 19 19 19 19 20 20 20 21 22 24 24 25 26 23 22 20 19 20 24 24
22 23 20 20 24 24 20 18 18 20 18 17 17 17 17 12 10 12 15 16 17 17 19 21 22 22 22 21 21 21 21 21 24 25 25 26 25 25 25 23 23 21 19
10 10 11 13 17 20 21 18 19 20 21 21 21 17 16 16 15 15 16 18 18 17 20 21 23 24 24 24 22 23 23 23 23 25 25 23 23 22 21 22 23 23 25
12 11 10 9 8 10 12 14 17 20 22 24 25 24 20 19 21 20 19 19 19 20 22 22 24 25 25 24 23 25 25 22 22 24 27 24 20 19 23 24 26 26 26
17 17 17 17 18 16 16 15 16 16 19 21 23 23 22 24 25 26 28 26 26 21 22 22 23 22 22 22 22 22 22 23 22 21 23 23 24 24 24 26 26 24 22
21 20 22 21 24 23 24 26 26 25 24 25 22 21 21 23 22 22 25 26 26 24 23 23 22 23 22 22 21 19 21 22 21 22 23 21 20 19 17 16 18 19 20
Wind_Direction
217 194 192 189 188 195 200 203 209 201 301 322 332 333 335 331 331 321 308 309 291 292 301 313 320 326 332 341 340 338 343 357 1 352 1 39 43 46 46 81 76 74 65
179 188 191 190 194 195 194 198 193 236 316 330 335 334 326 328 331 337 332 331 310 292 295 311 318 320 328 336 336 343 350 341 4 354 340 0 345 27 65 88 76 48 48
183 179 189 194 196 193 195 203 218 247 277 305 319 326 330 334 340 335 331 324 314 305 289 300 314 317 327 334 335 341 346 352 351 21 28 7 330 331 12 65 78 62 49
169 172 186 196 197 197 194 206 235 254 276 299 316 336 341 333 329 329 328 326 318 302 286 288 308 318 319 325 326 331 337 347 341 345 0 336 307 1 330 343 346 10 353
174 181 194 198 197 196 201 211 222 227 269 281 304 312 321 318 322 325 327 332 337 334 298 264 292 320 321 320 321 328 329 336 335 333 342 354 330 338 310 303 330 330 324
192 193 199 195 191 189 200 208 217 230 241 260 272 298 310 318 322 327 325 330 330 327 322 268 278 307 315 313 315 319 319 322 321 315 325 308 334 340 341 340 322 304 326
181 188 186 187 189 195 199 205 216 222 231 242 262 283 292 302 311 318 319 318 321 323 316 297 275 289 300 299 300 303 301 306 308 305 308 288 296 293 296 283 288 312 320
222 209 199 200 204 203 204 209 216 226 230 238 257 268 273 287 303 314 317 319 316 311 302 287 279 286 286 283 280 283 285 285 282 282 282 284 285 282 279 272 262 324 314
215 213 209 210 211 207 209 211 215 223 225 233 245 254 263 280 300 312 314 317 310 302 296 287 282 285 281 277 273 274 277 276 278 280 282 282 283 280 275 271 259 208 285
234 232 228 221 221 216 215 214 220 227 232 234 239 248 259 274 291 302 303 303 308 304 300 293 287 285 283 279 275 274 274 273 278 282 282 282 286 282 277 276 272 248 234
247 240 243 241 230 220 218 217 220 228 234 237 242 248 262 277 285 293 296 296 297 295 296 299 300 300 298 292 285 283 282 278 278 278 277 278 282 282 280 276 271 264 253
250 241 239 240 230 222 219 219 222 228 235 235 239 245 256 264 270 274 280 281 290 296 298 293 287 282 278 278 277 276 274 275 278 282 281 284 287 283 283 279 274 268 262
279 258 251 235 229 227 224 223 226 231 236 234 237 244 253 258 263 267 275 279 283 284 281 282 284 285 284 280 276 273 272 273 275 279 280 282 282 282 282 279 277 275 276
253 254 253 235 230 231 231 227 230 234 236 233 236 245 253 256 258 261 266 271 274 278 282 282 281 279 277 275 276 275 273 271 276 278 278 279 277 278 279 278 276 276 275
276 253 248 243 241 236 233 234 239 240 233 233 238 248 255 256 257 257 261 265 267 271 275 273 272 275 275 277 276 275 274 281 286 287 287 286 281 276 274 274 276 275 272
292 280 268 255 239 238 239 237 239 237 227 231 243 252 254 256 255 255 256 257 261 266 269 267 268 271 273 275 274 276 281 285 285 290 291 291 287 282 279 275 278 277 272
306 298 289 260 258 249 243 238 238 234 228 239 252 257 257 256 258 256 255 254 256 261 263 266 270 275 281 282 280 277 279 279 280 285 291 294 289 286 283 283 280 275 270
315 308 293 282 264 251 239 238 234 232 243 252 259 264 259 254 257 256 254 255 256 260 266 268 270 277 285 289 286 282 281 277 278 279 282 283 287 287 286 285 279 276 276
314 297 294 288 281 268 252 242 253 268 273 273 280 276 265 255 259 257 257 258 259 262 265 270 280 286 290 294 294 291 283 276 275 279 279 275 277 283 283 274 273 277 276
336 326 323 320 349 351 333 314 309 311 310 313 300 288 279 267 261 261 262 261 262 269 272 278 289 291 291 296 297 296 292 286 286 290 290 287 286 288 289 283 278 275 276
11 9 8 4 3 353 338 336 340 348 335 327 315 305 291 281 274 278 276 270 272 272 275 281 285 287 289 291 294 295 289 284 284 284 289 290 290 288 284 279 276 275 286
4 10 15 16 13 16 23 16 12 354 357 346 332 324 316 314 314 299 293 284 280 280 283 285 286 288 292 292 294 296 293 290 280 276 286 287 289 289 288 279 273 274 276
359 5 9 9 9 9 5 5 352 345 341 335 328 324 318 320 320 309 303 299 298 293 291 289 289 291 295 298 301 299 297 293 281 280 287 288 290 285 279 279 279 280 277
341 339 345 353 349 355 354 343 335 336 332 328 325 323 322 324 322 316 311 307 304 300 296 291 287 292 295 296 300 302 301 294 285 286 289 290 281 274 274 276 276 274 276
322 324 320 317 314 312 309 306 303 300 294 297 303 304 311 315 312 302 302 305 302 301 292 286 287 286 281 292 300 292 287 287 284 286 284 281 283 286 288 287 284 281 281
304 302 302 299 302 304 300 303 306 303 296 295 294 295 297 297 293 291 294 297 295 297 290 283 281 284 284 286 285 285 282 276 275 273 268 265 274 278 280 280 282 280 271
Height
799 802 804 807 808 809 810 811 811 812 812 812 811 809 807 806 805 805 805 804 803 803 802 801 799 796 795 793 793 791 787 783 779 775 771 769 769 769 769 769 769 769 768
798 800 804 805 806 807 808 810 810 811 811 812 812 810 808 805 803 803 802 801 801 801 800 799 797 796 794 792 793 792 789 786 783 781 779 777 773 771 770 771 771 770 769
795 799 801 802 804 804 806 808 809 809 809 809 809 808 807 804 803 802 800 800 799 799 798 798 797 795 793 792 793 792 790 788 786 785 782 780 781 777 773 772 771 771 770
792 795 797 800 801 802 804 806 809 809 807 807 807 805 805 804 802 800 799 797 796 796 796 796 795 794 792 791 792 791 791 789 788 786 784 783 782 781 779 774 773 772 771
788 791 793 795 798 800 802 804 806 806 807 806 805 804 802 802 801 799 797 796 795 794 793 794 794 793 791 791 791 790 790 789 788 788 786 784 783 783 782 780 775 772 771
789 790 792 794 796 798 801 802 804 804 804 804 803 802 801 800 799 797 796 794 793 792 792 791 791 790 790 789 789 789 788 788 787 787 786 786 785 785 784 783 780 778 772
789 790 791 793 795 796 798 800 802 802 802 802 802 800 799 799 797 796 794 793 792 790 790 789 789 788 788 787 787 786 786 786 785 785 785 785 784 784 784 783 782 781 775
790 789 788 790 793 794 795 798 799 800 801 801 800 799 798 797 796 795 793 792 790 789 789 788 787 786 785 784 784 783 783 783 782 782 782 782 782 782 782 782 782 782 779
785 785 784 786 787 788 790 793 795 796 797 797 797 797 796 795 794 793 792 791 790 789 787 787 786 784 783 782 782 781 781 780 780 780 780 780 779 779 779 779 779 780 782
780 780 782 782 783 784 787 790 792 793 794 794 794 794 794 792 791 791 790 790 789 788 787 785 784 783 781 781 780 779 779 778 778 778 778 778 777 776 776 777 777 777 778
780 781 780 781 781 782 784 786 789 790 791 792 792 792 791 791 790 790 789 788 786 785 784 783 783 782 781 780 779 778 778 776 775 775 775 775 774 773 774 774 774 775 775
778 777 776 776 776 778 780 782 783 785 785 786 787 788 787 787 787 786 785 784 784 784 782 780 778 777 776 777 776 775 774 773 772 772 772 772 771 771 771 771 771 770 771
776 774 773 773 772 773 774 776 778 779 780 781 783 784 784 784 784 783 783 782 781 779 778 776 775 775 774 774 772 771 770 769 769 769 768 768 768 767 767 767 766 767 767
772 770 769 766 765 766 768 770 772 773 775 777 778 778 778 778 778 779 779 778 777 776 775 775 773 771 770 770 769 769 767 766 766 765 764 763 763 762 763 763 762 762 762
767 765 763 761 761 762 763 765 766 768 770 772 773 772 773 774 774 774 774 774 773 773 772 771 770 769 768 767 766 765 764 763 761 761 761 760 760 759 759 758 758 758 758
767 763 759 757 756 756 757 760 761 762 765 766 766 767 768 768 768 768 768 768 769 769 769 767 765 764 763 763 762 762 761 760 758 757 757 756 756 756 756 756 756 755 754
766 762 757 754 753 754 755 756 757 759 760 761 762 763 764 763 763 764 763 763 763 763 763 763 762 761 760 759 759 759 758 756 755 754 754 753 752 751 750 751 751 751 751
767 762 757 753 751 751 751 752 754 756 758 759 758 758 758 757 758 758 757 757 757 758 758 757 757 757 757 756 755 755 754 752 751 750 749 748 747 747 747 746 745 745 745
766 761 757 756 754 753 753 754 755 757 757 756 755 754 754 753 753 752 752 753 753 753 753 753 753 753 752 751 751 751 749 747 745 744 743 742 742 741 741 740 739 738 737
768 764 760 757 757 758 757 756 756 756 755 754 752 750 749 748 748 748 748 748 749 749 749 748 749 748 747 747 746 746 745 743 741 740 739 739 739 738 737 736 734 732 730
776 770 765 764 761 757 756 756 756 755 755 753 752 750 746 743 743 745 745 744 744 743 743 742 742 742 741 740 740 739 738 736 735 734 733 733 733 732 731 731 730 728 728
775 773 771 769 767 764 760 759 757 757 752 751 750 749 749 744 740 741 741 741 739 738 738 737 735 734 734 734 733 732 732 731 728 727 726 726 727 726 726 726 723 722 722
781 778 775 771 769 767 766 762 760 759 756 752 750 749 747 745 743 742 738 737 735 733 731 731 728 727 727 727 726 726 725 724 722 721 720 719 719 719 718 719 718 718 716
782 779 775 771 767 765 764 764 762 759 755 751 748 746 743 739 738 738 735 732 729 729 726 725 725 721 720 721 720 719 718 717 717 716 714 712 712 712 711 710 709 709 709
782 779 775 772 768 765 762 759 756 752 749 747 743 741 738 735 734 733 731 729 726 725 724 722 721 719 715 713 712 712 711 710 710 710 708 706 705 703 703 703 702 701 701
779 775 771 768 764 760 757 756 753 749 745 742 738 736 734 730 729 728 725 724 722 719 718 717 715 712 708 707 706 705 705 704 703 702 700 699 699 697 697 696 694 695 695